When you browse on this site, cookies collect data to enhance your experience and personalize the content and advertising you see.
Visit our Privacy Policy to learn more. By continuing to use the site, you agree to this use of cookies and data.
  • In Hungary
  • List of Countries
  • For 7 days
  • Water Temperature
  • Weather Map
  • News
  • Weather Widgets
  • user-avatar
    Login

    Hourly Weather Podgornoe

    Today, 19 October, Saturday

    Time Temperature Precipitation Wind Pressure Humidity
    00:00 +3°C° 0 mm 2 mps 758 mmHg 89%
    01:00 +3°C° 0 mm 2 mps 758 mmHg 89%
    02:00 +3°C° 0 mm 2 mps 758 mmHg 89%
    03:00 +3°C° 0 mm 2 mps 759 mmHg 88%
    04:00 +3°C° 0 mm 2 mps 759 mmHg 88%
    05:00 +3°C° 0 mm 2 mps 759 mmHg 89%
    06:00 +3°C° 0 mm 2 mps 760 mmHg 89%
    07:00 +3°C° 0 mm 2 mps 760 mmHg 88%
    08:00 +3°C° 0 mm 2 mps 761 mmHg 88%
    09:00 +3°C° 0 mm 2 mps 761 mmHg 86%
    10:00 +4°C° 0 mm 2 mps 761 mmHg 84%
    11:00 +6°C° 0 mm 1 mps 762 mmHg 81%
    12:00 +7°C° 0 mm 1 mps 762 mmHg 79%
    13:00 +7°C° 0 mm 1 mps 762 mmHg 80%
    14:00 +7°C° 0 mm 1 mps 762 mmHg 81%
    15:00 +7°C° 0 mm 1 mps 763 mmHg 82%
    16:00 +6°C° 0 mm 1 mps 762 mmHg 84%
    17:00 +5°C° 0 mm 2 mps 762 mmHg 85%
    18:00 +5°C° 0 mm 2 mps 762 mmHg 87%
    19:00 +5°C° 0 mm 2 mps 763 mmHg 87%
    20:00 +5°C° 0 mm 2 mps 763 mmHg 87%
    21:00 +5°C° 0 mm 2 mps 763 mmHg 87%
    22:00 +5°C° 0 mm 2 mps 763 mmHg 88%
    23:00 +5°C° 0 mm 2 mps 763 mmHg 88%

    Tomorrow, 20 October, Sunday

    Time Temperature Precipitation Wind Pressure Humidity
    00:00 +5°C° 0 mm 2 mps 763 mmHg 89%
    01:00 +5°C° 0 mm 2 mps 763 mmHg 89%
    02:00 +4°C° 0 mm 3 mps 763 mmHg 89%
    03:00 +4°C° 0 mm 3 mps 763 mmHg 89%
    04:00 +4°C° 0 mm 3 mps 763 mmHg 90%
    05:00 +4°C° 0 mm 3 mps 762 mmHg 90%
    06:00 +4°C° 0 mm 3 mps 762 mmHg 90%
    07:00 +4°C° 0 mm 4 mps 762 mmHg 89%
    08:00 +5°C° 0 mm 4 mps 762 mmHg 88%
    09:00 +5°C° 0 mm 4 mps 762 mmHg 87%
    10:00 +6°C° 0.2 mm 4 mps 762 mmHg 88%
    11:00 +6°C° 0.2 mm 4 mps 761 mmHg 89%
    12:00 +6°C° 0.2 mm 4 mps 761 mmHg 89%
    13:00 +8°C° 0.5 mm 3 mps 761 mmHg 90%
    14:00 +9°C° 0.5 mm 3 mps 761 mmHg 91%
    15:00 +9°C° 0.5 mm 3 mps 761 mmHg 91%
    16:00 +9°C° 0 mm 3 mps 761 mmHg 93%
    17:00 +9°C° 0 mm 2 mps 761 mmHg 94%
    18:00 +9°C° 0 mm 2 mps 760 mmHg 95%
    19:00 +9°C° 0 mm 2 mps 761 mmHg 95%
    20:00 +9°C° 0 mm 2 mps 761 mmHg 95%
    21:00 +9°C° 0 mm 2 mps 761 mmHg 96%
    22:00 +9°C° 0 mm 2 mps 760 mmHg 96%
    23:00 +9°C° 0 mm 2 mps 760 mmHg 96%

    Day after tomorrow, 21 October, Monday

    Time Temperature Precipitation Wind Pressure Humidity
    00:00 +9°C° 0 mm 2 mps 760 mmHg 96%
    01:00 +9°C° 0 mm 2 mps 760 mmHg 96%
    02:00 +9°C° 0 mm 2 mps 760 mmHg 96%
    03:00 +9°C° 0 mm 2 mps 760 mmHg 96%
    04:00 +9°C° 0 mm 2 mps 760 mmHg 95%
    05:00 +9°C° 0 mm 3 mps 759 mmHg 95%
    06:00 +9°C° 0 mm 3 mps 759 mmHg 95%
    07:00 +9°C° 0 mm 3 mps 759 mmHg 93%
    08:00 +10°C° 0 mm 4 mps 758 mmHg 91%
    09:00 +10°C° 0 mm 4 mps 758 mmHg 89%
    10:00 +11°C° 0 mm 4 mps 758 mmHg 86%
    11:00 +12°C° 0 mm 5 mps 757 mmHg 83%
    12:00 +12°C° 0 mm 5 mps 757 mmHg 80%
    13:00 +13°C° 0 mm 5 mps 756 mmHg 79%
    14:00 +13°C° 0 mm 5 mps 755 mmHg 77%
    15:00 +13°C° 0 mm 6 mps 755 mmHg 76%
    16:00 +13°C° 0 mm 5 mps 754 mmHg 77%
    17:00 +13°C° 0 mm 5 mps 754 mmHg 78%
    18:00 +13°C° 0 mm 5 mps 753 mmHg 79%
    19:00 +13°C° 0.4 mm 5 mps 753 mmHg 81%
    20:00 +12°C° 0.4 mm 5 mps 753 mmHg 84%
    21:00 +12°C° 0.4 mm 5 mps 752 mmHg 87%
    22:00 +12°C° 1.5 mm 4 mps 752 mmHg 89%
    23:00 +12°C° 1.5 mm 4 mps 752 mmHg 90%

    22 October, Tuesday

    Time Temperature Precipitation Wind Pressure Humidity
    00:00 +11°C° 1.5 mm 3 mps 752 mmHg 92%
    01:00 +11°C° 0.1 mm 3 mps 753 mmHg 92%
    02:00 +10°C° 0.1 mm 3 mps 753 mmHg 92%
    03:00 +9°C° 0.1 mm 2 mps 754 mmHg 92%
    04:00 +8°C° 0 mm 2 mps 755 mmHg 94%
    05:00 +8°C° 0 mm 2 mps 755 mmHg 95%
    06:00 +7°C° 0 mm 2 mps 755 mmHg 96%
    07:00 +7°C° 0 mm 2 mps 756 mmHg 94%
    08:00 +8°C° 0 mm 2 mps 756 mmHg 92%
    09:00 +8°C° 0 mm 2 mps 757 mmHg 90%
    10:00 +8°C° 0 mm 3 mps 757 mmHg 89%
    11:00 +8°C° 0 mm 3 mps 757 mmHg 87%
    12:00 +9°C° 0 mm 3 mps 757 mmHg 86%
    13:00 +8°C° 0 mm 3 mps 758 mmHg 84%
    14:00 +8°C° 0 mm 3 mps 758 mmHg 82%
    15:00 +8°C° 0 mm 3 mps 758 mmHg 79%
    16:00 +7°C° 0 mm 3 mps 758 mmHg 82%
    17:00 +5°C° 0 mm 3 mps 758 mmHg 84%
    18:00 +5°C° 0 mm 2 mps 759 mmHg 87%
    19:00 +5°C° 0 mm 2 mps 759 mmHg 87%
    20:00 +5°C° 0 mm 2 mps 759 mmHg 87%
    21:00 +5°C° 0 mm 2 mps 759 mmHg 87%
    22:00 +5°C° 0 mm 2 mps 759 mmHg 86%
    23:00 +5°C° 0 mm 2 mps 759 mmHg 85%

    23 October, Wednesday

    Time Temperature Precipitation Wind Pressure Humidity
    00:00 +5°C° 0 mm 2 mps 759 mmHg 84%
    01:00 +4°C° 0 mm 2 mps 759 mmHg 83%
    02:00 +4°C° 0 mm 2 mps 759 mmHg 82%
    03:00 +5°C° 0 mm 1 mps 759 mmHg 81%
    04:00 +3°C° 0 mm 2 mps 759 mmHg 85%
    05:00 +3°C° 0 mm 2 mps 759 mmHg 88%
    06:00 +2°C° 0 mm 2 mps 759 mmHg 91%
    07:00 +3°C° 0 mm 2 mps 759 mmHg 88%
    08:00 +3°C° 0 mm 2 mps 758 mmHg 86%
    09:00 +3°C° 0 mm 3 mps 758 mmHg 84%
    10:00 +4°C° 0 mm 3 mps 758 mmHg 82%
    11:00 +5°C° 0 mm 3 mps 757 mmHg 80%
    12:00 +6°C° 0 mm 4 mps 757 mmHg 78%
    13:00 +7°C° 0 mm 4 mps 756 mmHg 77%
    14:00 +7°C° 0 mm 4 mps 756 mmHg 77%
    15:00 +7°C° 0 mm 4 mps 755 mmHg 77%
    16:00 +7°C° 0 mm 4 mps 755 mmHg 81%
    17:00 +7°C° 0 mm 4 mps 755 mmHg 86%
    18:00 +8°C° 0 mm 3 mps 754 mmHg 91%
    19:00 +8°C° 0.4 mm 4 mps 754 mmHg 92%
    20:00 +8°C° 0.4 mm 4 mps 754 mmHg 93%
    21:00 +10°C° 0.4 mm 4 mps 753 mmHg 94%
    22:00 +10°C° 0.1 mm 4 mps 753 mmHg 94%
    23:00 +10°C° 0.1 mm 3 mps 753 mmHg 95%

    24 October, Thursday

    Time Temperature Precipitation Wind Pressure Humidity
    00:00 +10°C° 0.1 mm 3 mps 753 mmHg 95%
    01:00 +10°C° 0 mm 3 mps 753 mmHg 95%
    02:00 +10°C° 0 mm 3 mps 753 mmHg 95%
    03:00 +10°C° 0 mm 3 mps 753 mmHg 96%
    04:00 +10°C° 0 mm 3 mps 753 mmHg 93%
    05:00 +10°C° 0 mm 3 mps 753 mmHg 91%
    06:00 +10°C° 0 mm 3 mps 753 mmHg 89%
    07:00 +10°C° 0 mm 3 mps 753 mmHg 87%
    08:00 +10°C° 0 mm 3 mps 754 mmHg 86%
    09:00 +8°C° 0 mm 4 mps 754 mmHg 84%
    10:00 +9°C° 0 mm 3 mps 755 mmHg 82%
    11:00 +10°C° 0 mm 3 mps 755 mmHg 80%
    12:00 +10°C° 0 mm 3 mps 755 mmHg 78%
    13:00 +10°C° 0 mm 3 mps 756 mmHg 79%
    14:00 +10°C° 0 mm 3 mps 756 mmHg 79%
    15:00 +9°C° 0 mm 3 mps 756 mmHg 80%
    16:00 +9°C° 0 mm 2 mps 757 mmHg 81%
    17:00 +9°C° 0 mm 2 mps 757 mmHg 82%
    18:00 +9°C° 0 mm 1 mps 757 mmHg 84%
    19:00 +9°C° 0 mm 1 mps 757 mmHg 84%
    20:00 +9°C° 0 mm 1 mps 758 mmHg 84%
    21:00 +9°C° 0 mm 1 mps 758 mmHg 84%
    22:00 +9°C° 0 mm 1 mps 758 mmHg 83%
    23:00 +9°C° 0 mm 1 mps 758 mmHg 83%
    Show more